Hourly Weather Murawin

Today, 29 September, Wednesday

Time Temperature Precipitation Wind Pressure Humidity
00:00 +7°C° 0 mm 3 mps 743 mmHg 80%
01:00 +6°C° 0 mm 4 mps 743 mmHg 82%
02:00 +6°C° 0 mm 4 mps 743 mmHg 81%
03:00 +6°C° 0 mm 4 mps 743 mmHg 81%
04:00 +6°C° 0 mm 4 mps 743 mmHg 81%
05:00 +6°C° 0 mm 5 mps 742 mmHg 79%
06:00 +7°C° 0 mm 5 mps 742 mmHg 76%
07:00 +7°C° 0 mm 6 mps 742 mmHg 74%
08:00 +9°C° 0 mm 6 mps 742 mmHg 70%
09:00 +10°C° 0 mm 7 mps 742 mmHg 66%
10:00 +12°C° 0 mm 7 mps 742 mmHg 62%
11:00 +14°C° 0 mm 7 mps 742 mmHg 62%
12:00 +15°C° 0 mm 6 mps 742 mmHg 62%
13:00 +16°C° 0 mm 6 mps 741 mmHg 62%
14:00 +15°C° 0 mm 6 mps 741 mmHg 64%
15:00 +15°C° 0 mm 5 mps 741 mmHg 65%
16:00 +15°C° 0 mm 5 mps 741 mmHg 67%
17:00 +14°C° 0 mm 5 mps 741 mmHg 69%
18:00 +14°C° 0 mm 5 mps 741 mmHg 71%
19:00 +13°C° 0 mm 4 mps 741 mmHg 73%
20:00 +12°C° 0 mm 4 mps 741 mmHg 73%
21:00 +12°C° 0 mm 4 mps 741 mmHg 73%
22:00 +12°C° 0 mm 3 mps 741 mmHg 73%
23:00 +12°C° 0.1 mm 3 mps 742 mmHg 75%

Tomorrow, 30 September, Thursday

Time Temperature Precipitation Wind Pressure Humidity
00:00 +13°C° 0.1 mm 2 mps 742 mmHg 77%
01:00 +13°C° 0.1 mm 1 mps 742 mmHg 79%
02:00 +13°C° 0.6 mm 1 mps 742 mmHg 84%
03:00 +13°C° 0.6 mm 1 mps 742 mmHg 89%
04:00 +13°C° 0.6 mm 1 mps 742 mmHg 93%
05:00 +13°C° 0.6 mm 2 mps 742 mmHg 94%
06:00 +13°C° 0.6 mm 2 mps 743 mmHg 94%
07:00 +13°C° 0.6 mm 2 mps 743 mmHg 95%
08:00 +13°C° 0.2 mm 2 mps 744 mmHg 91%
09:00 +13°C° 0.2 mm 2 mps 744 mmHg 87%
10:00 +14°C° 0.2 mm 2 mps 745 mmHg 83%
11:00 +13°C° 0.3 mm 2 mps 745 mmHg 81%
12:00 +13°C° 0.3 mm 2 mps 745 mmHg 79%
13:00 +13°C° 0.3 mm 2 mps 746 mmHg 77%
14:00 +13°C° 0.2 mm 1 mps 746 mmHg 80%
15:00 +12°C° 0.2 mm 1 mps 746 mmHg 83%
16:00 +12°C° 0.2 mm 1 mps 746 mmHg 85%
17:00 +11°C° 0.5 mm 1 mps 746 mmHg 87%
18:00 +11°C° 0.5 mm 1 mps 746 mmHg 89%
19:00 +11°C° 0.5 mm 1 mps 746 mmHg 91%
20:00 +10°C° 0.5 mm 1 mps 746 mmHg 91%
21:00 +10°C° 0.5 mm 1 mps 747 mmHg 90%
22:00 +10°C° 0.5 mm 1 mps 747 mmHg 90%
23:00 +10°C° 0.1 mm 1 mps 747 mmHg 89%

Day after tomorrow, 1 October, Friday

Time Temperature Precipitation Wind Pressure Humidity
00:00 +10°C° 0.1 mm 1 mps 747 mmHg 89%
01:00 +9°C° 0.1 mm 1 mps 747 mmHg 89%
02:00 +9°C° 0 mm 1 mps 747 mmHg 90%
03:00 +8°C° 0 mm 1 mps 747 mmHg 91%
04:00 +8°C° 0 mm 1 mps 746 mmHg 92%
05:00 +8°C° 0 mm 1 mps 747 mmHg 91%
06:00 +8°C° 0 mm 1 mps 747 mmHg 90%
07:00 +9°C° 0 mm 1 mps 747 mmHg 88%
08:00 +10°C° 0 mm 1 mps 747 mmHg 82%
09:00 +12°C° 0 mm 2 mps 747 mmHg 76%
10:00 +13°C° 0 mm 2 mps 746 mmHg 69%
11:00 +14°C° 0 mm 2 mps 746 mmHg 66%
12:00 +15°C° 0 mm 2 mps 746 mmHg 63%
13:00 +15°C° 0 mm 2 mps 745 mmHg 60%
14:00 +15°C° 0 mm 2 mps 745 mmHg 62%
15:00 +14°C° 0 mm 2 mps 745 mmHg 65%
16:00 +14°C° 0 mm 2 mps 744 mmHg 67%
17:00 +13°C° 0 mm 2 mps 744 mmHg 73%
18:00 +12°C° 0 mm 2 mps 744 mmHg 78%
19:00 +11°C° 0 mm 3 mps 744 mmHg 84%
20:00 +10°C° 0 mm 2 mps 744 mmHg 87%
21:00 +9°C° 0 mm 2 mps 743 mmHg 91%
22:00 +9°C° 0 mm 2 mps 743 mmHg 95%
23:00 +9°C° 0 mm 2 mps 743 mmHg 95%

2 October, Saturday

Time Temperature Precipitation Wind Pressure Humidity
00:00 +8°C° 0 mm 2 mps 743 mmHg 96%
01:00 +8°C° 0 mm 2 mps 742 mmHg 96%
02:00 +8°C° 0 mm 2 mps 742 mmHg 96%
03:00 +9°C° 0 mm 1 mps 742 mmHg 96%
04:00 +9°C° 0 mm 1 mps 741 mmHg 95%
05:00 +9°C° 0 mm 1 mps 741 mmHg 93%
06:00 +10°C° 0 mm 1 mps 741 mmHg 91%
07:00 +10°C° 0 mm 1 mps 741 mmHg 89%
08:00 +10°C° 0 mm 2 mps 741 mmHg 83%
09:00 +13°C° 0 mm 2 mps 741 mmHg 76%
10:00 +14°C° 0 mm 2 mps 741 mmHg 70%
11:00 +14°C° 0 mm 3 mps 741 mmHg 68%
12:00 +16°C° 0 mm 3 mps 741 mmHg 65%
13:00 +17°C° 0 mm 3 mps 740 mmHg 63%
14:00 +17°C° 0 mm 3 mps 740 mmHg 65%
15:00 +16°C° 0 mm 2 mps 740 mmHg 67%
16:00 +16°C° 0 mm 2 mps 740 mmHg 69%
17:00 +16°C° 0 mm 2 mps 740 mmHg 72%
18:00 +15°C° 0 mm 2 mps 740 mmHg 74%
19:00 +14°C° 0 mm 2 mps 740 mmHg 77%
20:00 +13°C° 0 mm 2 mps 740 mmHg 79%
21:00 +13°C° 0 mm 1 mps 740 mmHg 81%
22:00 +12°C° 0 mm 1 mps 739 mmHg 83%
23:00 +12°C° 0 mm 1 mps 739 mmHg 83%

3 October, Sunday

Time Temperature Precipitation Wind Pressure Humidity
00:00 +11°C° 0 mm 1 mps 739 mmHg 83%
01:00 +11°C° 0 mm 1 mps 739 mmHg 84%
02:00 +10°C° 0 mm 2 mps 738 mmHg 84%
03:00 +10°C° 0 mm 2 mps 738 mmHg 84%
04:00 +9°C° 0 mm 2 mps 738 mmHg 84%
05:00 +10°C° 0 mm 2 mps 738 mmHg 84%
06:00 +10°C° 0 mm 2 mps 737 mmHg 84%
07:00 +10°C° 0 mm 2 mps 737 mmHg 83%
08:00 +12°C° 0 mm 3 mps 737 mmHg 76%
09:00 +13°C° 0 mm 4 mps 737 mmHg 69%
10:00 +15°C° 0 mm 4 mps 737 mmHg 62%
11:00 +16°C° 0 mm 5 mps 736 mmHg 59%
12:00 +17°C° 0 mm 5 mps 736 mmHg 55%
13:00 +19°C° 0 mm 6 mps 736 mmHg 52%
14:00 +17°C° 0 mm 6 mps 735 mmHg 55%
15:00 +17°C° 0 mm 6 mps 735 mmHg 58%
16:00 +16°C° 0 mm 6 mps 735 mmHg 61%
17:00 +15°C° 0 mm 5 mps 734 mmHg 61%
18:00 +15°C° 0 mm 5 mps 734 mmHg 61%
19:00 +14°C° 0 mm 5 mps 734 mmHg 60%
20:00 +14°C° 0 mm 5 mps 734 mmHg 58%
21:00 +14°C° 0 mm 5 mps 733 mmHg 56%
22:00 +14°C° 0 mm 5 mps 733 mmHg 54%
23:00 +14°C° 0 mm 6 mps 732 mmHg 54%

4 October, Monday

Time Temperature Precipitation Wind Pressure Humidity
00:00 +14°C° 0 mm 6 mps 732 mmHg 53%
01:00 +14°C° 0 mm 7 mps 731 mmHg 52%
02:00 +14°C° 0 mm 7 mps 731 mmHg 53%
03:00 +14°C° 0 mm 7 mps 731 mmHg 53%
04:00 +14°C° 0 mm 7 mps 730 mmHg 54%
05:00 +15°C° 0 mm 7 mps 731 mmHg 57%
06:00 +15°C° 0 mm 6 mps 731 mmHg 60%
07:00 +15°C° 0 mm 5 mps 731 mmHg 64%
08:00 +16°C° 0 mm 5 mps 732 mmHg 65%
09:00 +16°C° 0 mm 5 mps 732 mmHg 66%
10:00 +17°C° 0 mm 5 mps 732 mmHg 67%
11:00 +19°C° 0 mm 5 mps 732 mmHg 65%
12:00 +20°C° 0 mm 5 mps 733 mmHg 63%
13:00 +21°C° 0 mm 5 mps 733 mmHg 61%
14:00 +20°C° 0 mm 4 mps 733 mmHg 66%
15:00 +19°C° 0 mm 3 mps 733 mmHg 70%
16:00 +18°C° 0 mm 2 mps 733 mmHg 75%
17:00 +17°C° 0 mm 2 mps 733 mmHg 76%
18:00 +17°C° 0 mm 2 mps 733 mmHg 78%
19:00 +16°C° 0 mm 2 mps 734 mmHg 79%
20:00 +16°C° 0.1 mm 2 mps 733 mmHg 78%
21:00 +16°C° 0.1 mm 3 mps 733 mmHg 78%
22:00 +14°C° 0.1 mm 3 mps 733 mmHg 77%
23:00 +14°C° 0.1 mm 3 mps 733 mmHg 81%
Show more

We Need Your Consent

Meteoprog and our Service Providers may store and access personal data such as cookies, device identifiers or other similar technologies on your device and process such data to personalise content and ads, as well as provide social media features and to analyse the traffic.

  • Store and/or access information on your device

    Cookies, device identifiers or other information can be stored or accessed on your device for the purposes indicated above.

  • Personalised ads and content, ad and content measurement, audience insights, and products development

    Ads and content can be personalised based on a profile. More data can be added to better personalise ads and content. Ad and content performance can be measured. Insights about the audience who saw the ads and content can be derived. Such data can be used to develop or improve user’s experience, systems and software.

By clicking ‘I Agree’ you will allow the use of indicated cookies, device identifiers, web beacons or other similar technologies. Your settings can be changed in the browser on your device.

For certain purposes, legitimate interests may be relied on, rather than consent. You can read more about this in our Privacy and Cookie Policy.